Location: Friaudour
(46.0460°N, 1.2873°E)
Time: 04:45:15
(UTC+00:00)

Cosmos 1140 Rocket - Pass Details

Date: 14 July 2020
Orbit: 744 x 768 km, 74.1° (Epoch: 06 August)

Event Time Altitude Azimuth Distance (km) Brightness Sun altitude
Exits shadow 02:32:12 20° 233° (SW) 1,706 4.7 -14.1°
Maximum altitude 02:35:31 45° 298° (WNW) 1,030 4.1 -13.8°
Drops below altitude 10° 02:40:33 10° 11° (N) 2,313 7.0 -13.3°
Sets 02:43:03 0° 18° (NNE) 3,246 8.2 -13.0°
